Location: Mat�lon
(46.2791°N, 7.1028°E)
Time: 11:05:09
(UTC+00:00)

Resurs 01 Rocket - Pass Details

Date: 18 September 2020
Orbit: 633 x 645 km, 98.0° (Epoch: 24 October)

Event Time Altitude Azimuth Distance (km) Brightness Sun altitude
Exits shadow 20:56:50 27° 280° (W) 1,244 3.5 -32.2°
Drops below altitude 10° 21:00:03 10° 325° (NW) 2,052 5.0 -32.6°
Sets 21:02:33 0° 337° (NNW) 2,965 6.0 -32.9°
